Temp
10 10 10 10 10 10 10 10 10 10 11 11 10 10 10 10 10 9 9 9 9 8 7 7 6 7 6 6 7 6 6 6 5 5 5 5 5 4
10 10 11 10 10 10 10 10 10 10 10 10 9 9 9 9 9 9 8 8 7 7 6 6 7 6 5 5 5 5 5 5 5 5 5 4 4 4
10 10 10 10 10 10 10 9 9 10 10 9 9 9 9 8 8 8 7 7 7 7 6 5 5 5 5 5 5 5 5 4 4 4 4 4 3 3
9 9 9 9 10 10 10 10 10 9 8 8 8 8 8 8 8 8 7 6 6 6 5 5 5 5 4 4 4 4 4 4 3 3 3 3 3 3
9 9 10 10 10 9 9 9 9 9 8 7 7 7 8 7 7 7 7 6 6 4 4 4 4 4 4 3 3 3 3 3 3 3 3 3 3 3
9 8 8 8 8 8 8 8 6 6 7 6 6 7 7 7 7 6 6 6 5 3 3 3 4 3 3 3 2 3 2 2 2 2 2 3 3 2
8 8 8 7 7 6 5 5 5 5 5 6 6 7 7 6 6 6 5 4 4 2 3 3 2 2 2 2 2 2 2 2 2 2 2 2 2 1
8 7 7 6 5 3 2 2 3 4 5 5 5 6 6 5 6 5 5 4 3 3 2 2 2 1 2 2 2 2 2 1 1 1 1 1 1 1
6 6 5 5 4 4 3 3 3 3 4 4 4 5 5 5 4 4 4 4 3 3 2 2 1 1 2 1 1 1 1 1 0 0 1 1 1 1
5 5 5 4 4 3 3 2 2 2 3 3 4 3 3 3 3 3 3 2 2 1 1 1 1 1 1 1 0 0 0 -0 -0 1 1 1 1 0
5 4 4 4 3 2 2 1 2 2 2 2 2 2 2 2 2 3 2 2 1 1 1 0 1 1 0 -0 -0 -0 -0 -0 -0 0 0 0 0 0
4 4 3 2 1 1 1 1 1 1 1 1 1 1 1 1 1 1 1 1 0 -0 1 -0 -0 -0 -1 -1 -1 -0 -0 -0 -0 0 0 -0 -0 0
3 2 1 0 0 1 1 0 0 0 -0 -0 -0 -0 0 0 0 0 0 -0 -0 -0 0 -0 -1 -0 -1 -1 -0 -0 -0 -0 -0 -0 -1 -1 -1 -1
2 2 1 1 1 0 -0 -1 -1 -1 -1 -1 -0 -0 -0 -0 -0 -1 -1 -1 -1 -1 -1 -1 -1 -1 -1 -1 -1 -0 -0 -0 -1 -1 -1 -1 -1 -1
1 1 1 1 0 -1 -1 -2 -2 -1 -1 -1 -1 -1 -1 -1 -1 -1 -1 -1 -1 -1 -1 -1 -2 -2 -2 -2 -1 -1 -1 -1 -1 -1 -1 -1 -1 -2
0 0 0 0 0 -1 -1 -2 -1 -2 -2 -2 -2 -2 -2 -2 -2 -2 -2 -2 -2 -1 -1 -1 -2 -2 -1 -1 -1 -1 -1 -2 -1 -1 -1 -1 -2 -2
-0 -0 -0 0 -1 -1 -2 -1 -2 -2 -2 -2 -2 -2 -3 -3 -2 -2 -2 -2 -2 -1 -1 -2 -1 -1 -1 -1 -1 -1 -1 -1 -1 -2 -1 -1 -2 -3
-0 -0 -1 -0 -1 -2 -2 -2 -2 -2 -2 -3 -3 -2 -3 -3 -3 -3 -2 -2 -2 -1 -1 -1 -1 -1 -1 -1 -1 -0 -1 -1 -2 -2 -2 -1 -2 -3
-1 -1 -1 -1 -2 -3 -3 -2 -2 -3 -3 -3 -3 -3 -3 -3 -4 -3 -3 -2 -1 -1 -2 -2 -1 -1 -1 -1 -1 -1 -1 -2 -2 -2 -2 -2 -2 -2
-1 -2 -1 -1 -2 -2 -3 -2 -2 -3 -3 -3 -3 -3 -3 -3 -3 -2 -2 -2 -2 -2 -2 -2 -1 -2 -2 -2 -2 -1 -2 -2 -2 -3 -3 -3 -3 -3
-2 -2 -2 -2 -2 -3 -3 -3 -3 -3 -3 -3 -2 -2 -3 -3 -3 -3 -2 -2 -2 -2 -2 -2 -2 -5 -4 -3 -2 -1 -3 -3 -3 -3 -3 -3 -3 -3
-2 -2 -3 -3 -3 -3 -3 -3 -3 -3 -3 -2 -2 -2 -2 -3 -2 -2 -2 -2 -2 -2 -2 -3 -4 -4 -3 -3 -2 -2 -2 -3 -4 -4 -3 -4 -4 -4
-3 -3 -3 -3 -3 -3 -3 -3 -3 -3 -2 -2 -2 -2 -2 -2 -2 -3 -2 -2 -2 -3 -3 -2 -3 -4 -4 -3 -3 -3 -3 -3 -4 -4 -4 -5 -5 -4
Height
1539 1539 1539 1540 1541 1541 1541 1544 1546 1544 1541 1542 1543 1543 1544 1544 1545 1545 1545 1545 1544 1545 1547 1545 1545 1544 1546 1547 1547 1548 1548 1550 1551 1551 1551 1551 1551 1552
1536 1537 1538 1539 1539 1538 1539 1540 1539 1539 1538 1538 1540 1540 1540 1540 1540 1540 1540 1540 1541 1541 1541 1541 1543 1542 1542 1543 1542 1544 1546 1548 1548 1549 1548 1547 1547 1548
1535 1535 1536 1535 1535 1534 1534 1534 1534 1535 1533 1532 1533 1534 1534 1534 1535 1536 1534 1536 1535 1536 1536 1537 1537 1538 1539 1539 1539 1540 1541 1544 1545 1545 1545 1544 1544 1544
1530 1530 1530 1530 1528 1528 1527 1527 1527 1527 1528 1526 1527 1526 1528 1529 1528 1530 1531 1531 1531 1531 1531 1533 1533 1533 1533 1535 1535 1536 1537 1538 1541 1542 1542 1541 1541 1541
1526 1526 1525 1524 1523 1522 1521 1520 1520 1519 1519 1519 1522 1521 1521 1524 1524 1525 1526 1527 1527 1527 1527 1529 1528 1529 1527 1529 1532 1532 1533 1534 1537 1538 1538 1538 1538 1538
1522 1522 1520 1520 1517 1515 1513 1513 1514 1513 1513 1514 1516 1515 1516 1517 1518 1520 1520 1522 1523 1522 1523 1523 1522 1525 1523 1525 1529 1529 1529 1530 1532 1534 1534 1534 1535 1535
1517 1517 1516 1515 1512 1510 1507 1509 1508 1507 1509 1510 1509 1510 1511 1512 1513 1514 1515 1517 1517 1518 1519 1519 1518 1520 1519 1521 1523 1524 1525 1525 1527 1529 1530 1531 1532 1533
1513 1512 1511 1509 1509 1506 1505 1504 1504 1503 1504 1503 1503 1505 1506 1507 1507 1509 1512 1512 1513 1513 1514 1515 1516 1517 1516 1516 1519 1520 1520 1521 1523 1525 1527 1529 1530 1531
1508 1507 1506 1505 1504 1502 1502 1501 1499 1499 1498 1498 1498 1500 1501 1502 1503 1503 1504 1506 1507 1509 1510 1510 1513 1513 1511 1512 1514 1516 1516 1517 1519 1522 1524 1526 1528 1529
1503 1502 1501 1501 1499 1499 1498 1496 1494 1494 1494 1494 1494 1495 1496 1496 1498 1498 1500 1501 1502 1504 1505 1507 1508 1507 1507 1508 1510 1512 1513 1515 1517 1520 1521 1523 1524 1525
1499 1498 1497 1496 1496 1495 1494 1492 1491 1490 1490 1491 1490 1491 1491 1492 1493 1493 1494 1496 1498 1499 1501 1502 1503 1503 1504 1505 1507 1508 1510 1512 1514 1516 1518 1519 1520 1520
1495 1495 1494 1492 1492 1490 1490 1489 1488 1488 1487 1487 1487 1487 1487 1487 1489 1490 1490 1492 1494 1496 1496 1498 1498 1500 1500 1501 1503 1505 1508 1509 1511 1513 1514 1515 1516 1517
1491 1491 1491 1490 1488 1487 1485 1485 1485 1484 1484 1484 1484 1484 1484 1485 1486 1487 1487 1488 1490 1491 1492 1493 1493 1495 1497 1498 1499 1502 1504 1505 1507 1508 1510 1511 1512 1513
1487 1488 1488 1486 1485 1483 1482 1482 1481 1481 1481 1482 1482 1482 1482 1482 1483 1483 1484 1485 1486 1487 1488 1489 1491 1492 1494 1496 1497 1499 1500 1501 1503 1504 1505 1506 1507 1508
1483 1482 1482 1482 1480 1479 1479 1478 1479 1479 1479 1479 1479 1479 1479 1479 1479 1480 1481 1482 1482 1483 1483 1485 1488 1490 1492 1493 1494 1496 1497 1498 1498 1500 1500 1501 1502 1502
1478 1478 1477 1477 1476 1476 1476 1477 1477 1477 1476 1476 1475 1475 1476 1476 1476 1477 1479 1479 1479 1479 1480 1482 1484 1486 1488 1489 1490 1491 1493 1494 1493 1494 1495 1495 1496 1497
1473 1473 1473 1473 1473 1472 1472 1473 1474 1474 1474 1473 1473 1473 1473 1473 1474 1474 1475 1476 1476 1476 1477 1478 1480 1482 1483 1484 1485 1487 1487 1488 1489 1489 1489 1490 1492 1491
1468 1468 1469 1469 1469 1469 1469 1470 1470 1470 1471 1470 1470 1470 1470 1471 1471 1472 1472 1473 1473 1473 1474 1475 1476 1478 1479 1480 1481 1482 1483 1484 1484 1484 1485 1484 1486 1487
1462 1462 1463 1464 1464 1464 1464 1465 1466 1467 1467 1466 1466 1466 1467 1467 1467 1468 1468 1469 1470 1470 1471 1472 1473 1474 1475 1476 1477 1478 1479 1480 1480 1480 1480 1480 1479 1482
1457 1457 1458 1458 1458 1459 1459 1460 1461 1462 1462 1462 1462 1463 1463 1463 1463 1464 1465 1466 1466 1467 1468 1468 1470 1471 1472 1473 1473 1474 1474 1475 1475 1475 1476 1475 1474 1474
1452 1452 1452 1452 1453 1453 1454 1455 1455 1456 1457 1457 1457 1458 1459 1459 1459 1460 1461 1461 1461 1462 1463 1465 1468 1468 1467 1467 1467 1468 1470 1471 1471 1471 1470 1469 1468 1467
1446 1446 1446 1446 1446 1447 1447 1448 1448 1450 1450 1451 1452 1453 1454 1454 1454 1455 1455 1456 1456 1457 1459 1461 1462 1462 1461 1461 1461 1463 1464 1465 1466 1465 1464 1464 1463 1461
1440 1439 1439 1439 1439 1439 1440 1440 1441 1442 1443 1444 1445 1446 1447 1446 1447 1448 1448 1449 1450 1451 1452 1453 1456 1456 1455 1455 1457 1457 1457 1458 1458 1459 1459 1458 1456 1454
Wind_Speed
17 16 14 18 18 18 14 16 21 24 26 30 23 23 21 23 24 23 19 19 16 14 12 12 14 17 17 13 18 18 14 14 14 16 15 12 12 12
10 11 13 15 19 21 22 25 25 26 28 24 24 22 20 17 23 21 22 18 15 14 15 16 18 19 17 15 17 16 14 13 14 15 15 13 11 11
18 20 24 25 25 26 25 23 24 22 26 28 28 23 25 24 23 25 23 19 16 15 15 18 17 16 15 15 15 15 15 15 16 15 13 12 13 13
26 27 25 25 24 24 25 26 26 24 27 31 29 24 26 27 21 21 23 19 18 14 13 15 17 18 18 18 18 17 15 15 15 14 14 13 12 13
19 20 22 25 26 27 27 26 26 24 23 23 25 26 21 23 20 23 24 20 19 16 16 17 17 18 15 15 14 13 12 14 15 15 14 13 13 12
17 19 20 23 25 27 28 26 23 20 18 21 21 27 21 23 24 26 22 20 19 18 18 16 15 15 12 12 14 14 15 15 15 14 13 13 11 9
14 17 20 22 26 26 25 24 22 20 20 23 23 25 26 24 23 24 21 19 21 19 18 17 15 15 14 14 15 16 17 16 15 14 13 11 10 9
17 17 20 21 23 23 21 20 20 20 21 22 22 23 21 23 22 19 18 19 21 20 18 18 17 16 15 14 16 17 16 14 14 14 13 11 10 9
18 18 18 18 19 19 21 21 19 20 19 19 21 23 22 18 15 16 18 20 20 17 13 17 18 17 15 14 16 16 14 13 13 12 12 11 11 11
19 19 19 19 18 18 18 18 17 16 15 16 17 17 18 16 16 16 17 18 19 19 18 16 16 15 15 15 15 14 13 13 13 12 12 13 14 13
21 21 20 19 18 15 15 16 16 16 16 16 17 17 17 17 17 17 20 20 20 19 18 18 17 15 14 15 15 14 14 14 13 12 13 14 14 14
18 20 19 19 15 15 15 16 15 15 15 14 15 15 14 13 14 15 16 16 18 15 18 19 17 12 10 16 16 16 15 15 14 13 13 14 14 14
17 18 19 17 18 18 16 16 15 15 13 12 11 10 10 12 14 15 16 17 18 18 13 10 14 14 14 5 17 16 16 15 15 14 14 14 16 18
14 17 19 19 19 19 19 16 14 12 10 12 12 12 12 13 14 14 15 15 16 16 15 15 11 12 16 13 8 12 14 14 15 16 17 18 18 18
16 17 19 20 19 18 17 11 11 11 12 12 13 13 14 14 14 13 13 13 13 13 13 14 13 13 14 16 15 14 14 16 17 17 19 21 19 20
19 19 19 20 20 16 15 11 14 14 14 13 13 14 14 13 12 12 12 12 12 12 12 12 14 16 17 17 18 17 16 14 12 17 20 20 18 18
20 20 20 20 20 16 12 15 15 15 15 13 13 13 13 13 13 12 13 12 12 11 12 12 14 15 16 16 15 14 16 17 18 20 20 20 17 18
22 22 20 20 21 17 15 16 16 16 15 14 14 14 13 13 14 14 13 12 12 11 11 12 12 13 13 13 12 12 15 15 16 17 18 20 17 15
24 23 22 21 21 17 17 18 18 16 16 17 15 15 16 15 16 15 14 14 12 12 11 13 13 13 13 12 10 9 11 13 15 15 16 19 22 16
24 25 24 23 22 21 19 21 21 18 18 18 18 17 17 17 19 18 17 16 14 14 15 16 15 13 13 12 14 12 8 11 15 16 17 20 22 21
24 25 25 24 22 21 20 23 21 20 20 19 19 19 19 20 20 20 19 18 18 19 20 19 12 14 18 19 19 15 10 12 15 17 19 21 23 24
24 25 24 24 24 23 23 23 24 23 22 22 22 21 21 22 23 22 21 21 21 21 20 18 17 21 24 23 22 20 19 17 16 19 22 21 22 22
22 22 23 24 24 24 23 23 23 27 26 25 25 25 24 25 24 23 23 23 23 23 24 23 20 24 27 26 25 25 24 24 21 20 22 21 24 25
Wind_Direction
270 271 273 274 266 290 284 273 280 283 290 291 281 280 275 274 274 276 264 264 276 285 264 260 261 259 270 272 276 248 225 240 264 277 283 288 292 285
301 299 292 285 276 282 273 271 274 275 273 278 286 283 277 266 280 268 259 258 269 280 254 255 258 263 258 251 241 247 254 258 271 283 281 281 283 280
286 286 282 282 284 280 280 274 278 274 274 273 277 274 277 268 270 275 251 250 262 279 265 256 258 260 266 259 255 260 265 271 271 270 271 278 281 281
286 286 285 281 285 286 285 284 281 276 270 272 276 270 271 273 263 258 258 252 264 280 265 251 257 263 261 260 256 258 259 259 260 263 265 270 271 274
290 289 292 291 292 292 290 286 282 278 273 272 273 269 271 269 260 260 252 254 271 269 254 253 259 262 259 253 250 248 248 257 262 261 262 263 265 265
293 295 296 298 297 295 293 291 286 279 267 273 263 270 272 261 257 254 249 259 269 263 253 255 257 257 251 250 251 253 257 258 259 260 262 261 256 228
298 305 309 309 309 306 298 290 285 280 271 264 267 270 270 264 262 247 251 252 264 259 250 247 245 249 251 254 259 260 256 257 258 257 255 244 213 215
300 305 312 317 323 322 312 297 283 277 273 261 264 261 266 265 257 243 252 252 256 260 248 249 247 251 255 258 258 259 257 253 247 242 229 212 216 222
306 306 307 306 308 311 309 299 283 275 270 269 260 252 255 250 247 252 258 263 259 251 252 247 247 253 255 252 254 254 247 235 225 212 213 219 228 237
310 305 304 301 302 307 301 295 288 280 274 267 259 254 250 248 252 263 262 251 245 243 244 248 251 253 255 250 249 242 224 215 214 217 222 231 242 248
314 308 304 303 297 303 301 296 289 282 277 271 270 266 261 256 258 257 247 239 239 242 246 252 254 254 248 241 233 221 212 218 223 225 232 240 247 251
307 306 307 304 299 294 295 293 288 282 276 273 272 264 254 252 249 242 234 236 241 247 250 247 249 244 238 231 222 217 219 229 234 237 239 240 247 255
307 310 311 309 301 293 292 290 280 274 270 272 270 269 263 255 250 247 245 244 244 242 244 251 242 233 219 225 220 223 228 232 238 236 241 247 252 258
298 300 304 302 299 291 286 281 274 273 274 272 271 271 267 261 257 253 250 247 243 243 241 241 243 231 219 224 223 216 223 232 240 249 253 256 261 266
292 298 298 296 294 288 279 275 276 275 274 275 278 274 266 260 257 253 248 244 241 239 238 236 231 220 218 227 241 245 245 247 249 248 254 262 264 270
293 294 293 293 294 281 269 267 268 273 274 280 277 265 263 260 254 251 248 243 241 239 238 235 232 233 234 239 246 251 251 244 253 254 257 262 264 268
286 289 288 289 288 279 264 270 273 275 280 282 276 269 262 258 254 250 246 244 242 238 239 240 240 242 244 246 249 250 250 250 253 257 262 265 265 268
277 282 280 281 280 277 260 273 275 278 280 276 275 267 264 263 255 249 246 244 241 239 240 238 240 242 248 252 251 245 251 256 252 253 260 268 268 262
273 279 279 277 280 270 259 270 275 275 272 268 267 266 257 255 256 253 251 248 243 238 239 241 241 241 246 249 254 252 251 254 259 261 265 274 281 280
276 277 281 280 279 275 255 262 274 268 266 268 266 264 263 260 258 258 254 252 248 244 242 244 245 250 257 264 253 249 249 261 268 271 276 279 284 287
276 277 281 283 282 280 279 266 266 264 262 265 268 266 263 261 261 259 258 255 253 247 247 250 261 256 251 254 260 266 261 259 267 275 279 283 287 289
279 282 284 283 284 280 278 278 259 262 263 263 266 267 265 262 262 262 260 258 258 261 259 256 247 248 255 258 264 268 271 264 268 272 276 283 286 285
279 279 279 280 280 278 277 272 263 257 262 264 265 265 265 265 265 264 263 261 260 259 263 261 251 250 254 258 263 266 269 270 275 275 276 281 284 287